Regional Weather Roundup
Issued by NWS Green Bay, WI

Home | Current Version | Previous Version | Text Only | Print | Product List | Glossary On
Versions: 1 2 3 4 5 6 7 8 9 10 11 12 13 14 15 16 17 18 19 20 21 22 23 24 25 26 27 28 29 30 31 32 33 34 35 36 37 38 39 40 41 42 43 44 45 46 47 48 49 50
370
ASUS43 KGRB 161211
RWRGRB

NORTH-CENTRAL AND NORTHEAST WISCONSIN REGIONAL WEATHER ROUNDUP
NATIONAL WEATHER SERVICE GREEN BAY WI
600 AM CST SAT DEC 16 2017

WIZ005-009-010>012-018-019-161300-
NORTH CENTRAL WISCONSIN

CITY           SKY/WX    TMP DP  RH WIND       PRES   REMARKS
IRONWOOD       CLOUDY     8   6  92 E6        29.85R WCI  -2
MANITOWISH WTR CLOUDY     2   1  93 CALM      29.82R
ARBOR VITAE    CLOUDY     6   2  86 SE3       29.81R
EAGLE RIVER    CLOUDY     3  -1  83 CALM      29.82R
LAND O LAKES   CLOUDY     9   6  88 CALM      29.83R
RHINELANDER    CLOUDY     7   5  91 E5        29.81R WCI  -2
PHILLIPS       CLOUDY    11   8  88 E5        29.80R WCI   2
ANTIGO         CLOUDY    11   7  84 E7        29.82R WCI   1
TOMAHAWK       CLOUDY    10   7  89 CALM      29.82R
MERRILL        CLOUDY    14  10  83 E5        29.83R WCI   6
$$

WIZ013-073-161300-
NORTHEAST WISCONSIN

CITY           SKY/WX    TMP DP  RH WIND       PRES   REMARKS
IRON MOUNTAIN  CLOUDY     5   1  83 CALM      29.86R
MARINETTE      CLOUDY    11   5  77 N5        29.92R WCI   3
OCONTO         CLOUDY    14   6  69 N3        29.89S
$$

WIZ017-030-035>037-045-161300-
CENTRAL WISCONSIN

CITY           SKY/WX    TMP DP  RH WIND       PRES   REMARKS
MEDFORD        CLOUDY    15  11  85 E10       29.78R WCI   2
WAUSAU         CLOUDY    14   9  80 E8        29.82R WCI   3
MOSINEE        CLOUDY    14  10  85 E10G17    29.83R WCI   1
MARSHFIELD     CLOUDY    17  13  84 E15       29.77R WCI   2
WISC RAPIDS    CLOUDY    17  12  80 E15       29.82R WCI   2
STEVENS POINT  CLOUDY    14  11  89 E9G16     29.83R WCI   2
WAUPACA        CLOUDY    19  14  81 NE6       29.86R
SHAWANO        CLOUDY    16  12  84 NE5       29.88R WCI   9
CLINTONVILLE   CLOUDY    16  10  79 NE7       29.88R WCI   6
WAUTOMA        CLOUDY    18  14  84 NE10      29.84R WCI   6
$$

WIZ038-039-048-051-161300-
FOX VALLEY

CITY           SKY/WX    TMP DP  RH WIND       PRES   REMARKS
NWS GREEN BAY  CLOUDY    18  14  84 NE7       29.88R WCI   9
APPLETON       CLOUDY    18  12  79 E12G17    29.83R WCI   5
OSHKOSH        CLOUDY    19  15  84 NE12      29.84R WCI   7
FOND DU LAC    CLOUDY    22  17  81 NE9       29.83R
$$

WIZ022-050-052-161300-
EAST CENTRAL WISCONSIN

CITY           SKY/WX    TMP DP  RH WIND       PRES   REMARKS
EPHRAIM        PTSUNNY   17   7  66 NE6       29.89R WCI   8
WASHINGTON ISL CLOUDY    11   6  79 CALM      29.90R
STURGEON BAY   CLOUDY    18  10  71 MISG      29.90R
MANITOWOC      FLURRIES  18  16  93 N5        29.89R
SHEBOYGAN      LGT SNOW  21  20  96 N9        29.85R FOG
$$

LMZ563-521-522-541>543-161300-
LAKESHORE

STATION/POSITION TIME  TEMP    WIND        PRES    VSBY  WAVE
                       AIR SEA DIR/SP/G                  HT/PER
                 (UTC) (F)     (DEG/KT/KT) (MB)    (MI)  (FT/S)
SHEBOYGAN LKSHOR 1200   28      50/ 15/ 17 1011.9R
KEWAUNEE LKSHORE 1148   18     350/  5/  7 1011.1R
NORTHPORT PIER   1140   20      40/  5/  8 1012.5R
MENOMINEE LKSHOR 1148   19     360/ 12/ 13 1012.3R
$$




USA.gov is the U.S. government's official web portal to all federal, state and local government web resources and services.